Tracking 17143 objects as of 30-June-2015
HD Live streaming from Space Station

SL-16 DEB

Track SL-16 DEB now!
10-day predictions
SL-16 DEB is classified as:


NORAD ID: 24300
Int'l Code: 1996-051D
Perigee: 848.7 km
Apogee: 1,136.8 km
Inclination: 71.0 °
Period: 104.8 minutes
Semi major axis: 7363 km
RCS: 0.0855 m2 (small)
Launch date: September 4, 1996
Source: Commonwealth of Independent States (former USSR) (CIS)

Note: This is SATELLITE DEBRIS
Your satellite tracking list
Your tracking list is empty





NASA's NSSDC Master Catalog

Two Line Element Set (TLE):
1 24300U 96051D   15180.83332209  .00000034  00000-0  70747-4 0  9991
2 24300 071.0312 042.4105 0195652 034.9789 089.5109 13.73898413943385

Source of the keplerian elements: AFSPC

N2YO: 318